Regional Weather Roundup
Issued by NWS

Home | Current Version | Previous Version | Text Only | Print | Product List | Glossary Off
Versions: 1 2 3 4 5 6 7 8 9 10 11 12 13 14 15 16 17 18 19 20 21 22 23 24 25 26 27 28 29 30 31 32 33 34 35 36 37 38 39 40 41 42 43 44 45 46 47 48 49 50

380
ASUS43 KDMX 282103
RWRIA

WEATHER ROUNDUP FOR IOWA
NATIONAL WEATHER SERVICE DES MOINES IA
400 PM CDT SAT MAY 28 2016

NOTE: "FAIR" INDICATES FEW OR NO CLOUDS BELOW 12,000 FEET WITH NO
SIGNIFICANT WEATHER AND/OR OBSTRUCTIONS TO VISIBILITY.

* - THESE STATIONS ARE NOT NWS STATIONS...THUS NOT UNDER NWS
QUALITY CONTROL.  THEY ALSO DO NOT REPORT WEATHER SUCH
AS PRECIPITATION OR FOG.

IAZ001>003-012>014-020>022-031>034-043>046-282200-
   NORTHWEST IOWA

CITY           SKY/WX    TMP DP  RH WIND       PRES   REMARKS
CARROLL *      PTSUNNY   70  59  68 SW20G26   29.76S
CHEROKEE *     PTSUNNY   74  60  61 SW8       29.73F
DENISON *      PTSUNNY   70  59  68 SW13G22   29.74F
LE MARS *      PTSUNNY   72  59  64 SW5       29.75R
ORANGE CITY *  MOSUNNY   72  57  60 S3        29.75S
SHELDON *      CLOUDY    72  57  60 S5        29.74R
SIOUX CITY     CLOUDY    70  61  73 NW14G22   29.74R
SPENCER        CLOUDY    69  60  73 SE5       29.74S
STORM LAKE *     N/A     73  55  53 S14G20    29.75S
$$

IAZ055>058-069>071-079>083-090>094-282200-
   SOUTHWEST IOWA

CITY           SKY/WX    TMP DP  RH WIND       PRES   REMARKS
ATLANTIC *     PTSUNNY   72  57  60 SW23      29.80S
AUDUBON *        N/A     72  59  64 SW16      29.80S
CLARINDA *       N/A     73  59  60 MISG      29.85S
COUNCIL BLFS *   N/A     72  59  64 W15G24    29.81S
CRESTON *      PTSUNNY   72  61  68 SW15G21   29.84S
HARLAN  *      PTSUNNY   70  59  68 SW22G30   29.82R
LAMONI         LGT RAIN  70  62  76 SW14      29.85R
RED OAK *      PTSUNNY   73  57  56 W17G25    29.82S
SHENANDOAH *   CLOUDY    73  59  60 SW15G21   29.84R
$$

IAZ047>049-059>061-072>074-084-282200-
   CENTRAL IOWA

CITY           SKY/WX    TMP DP  RH WIND       PRES   REMARKS
AMES           LGT RAIN  68  64  87 SW15      29.79R
ANKENY *       MOSUNNY   72  66  83 S9G16     29.79S
BOONE *        CLOUDY    72  63  73 S15G22    29.76S
CHARITON *     MOSUNNY   68  63  83 SW12G22   29.83S
DES MOINES     MOSUNNY   73  65  75 SW13      29.79S
GRINNELL*      CLOUDY    68  61  77 SW22      29.81R
KNOXVILLE *    MOSUNNY   72  63  73 SW16G23   29.80F
MARSHALLTOWN   CLOUDY    69  63  81 S14       29.78S
NEWTON *       PTSUNNY   72  66  83 SW20      29.80R
PERRY *        PTSUNNY   75  63  64 SW21      29.77S
$$

IAZ004>006-015-016-023>025-035-036-282200-
   NORTH CENTRAL IOWA

CITY           SKY/WX    TMP DP  RH WIND       PRES   REMARKS
ALGONA *       PTSUNNY   72  61  68 SE15      29.74S
CLARION *      PTSUNNY   73  64  73 SW8       29.75F
ESTHERVILLE    TSTM      63  61  93 NE21      29.73F
FORT DODGE *   PTSUNNY   73  61  64 SW12G17   29.76S
MASON CITY     LGT RAIN  62  59  90 NW5       29.79F FOG
FOREST CITY *  PTSUNNY   63  63 100 CALM      29.77F
WEBSTER CITY * PTSUNNY   75  61  60 SW13G18   29.74S
IOWA FALLS *   DRIZZLE   66  64  94 S10       29.79S
$$

IAZ007>011-017>019-026>030-037>042-050>054-066-282200-
   NORTHEAST IOWA

CITY           SKY/WX    TMP DP  RH WIND       PRES   REMARKS
CEDAR RAPIDS   MOSUNNY   77  64  64 SW22G33   29.78S
CHARLES CITY * PTSUNNY   72  64  78 SW12G18   29.78R
CLINTON *      PTSUNNY   81  65  58 S23G32    29.80F HX  83
DECORAH *      PTSUNNY   75  61  60 S8G16     29.76S
DUBUQUE        HVY RAIN  65  63  93 W13       29.82R FOG
MONTICELLO *   CLOUDY    72  64  78 S6        29.79F
OELWEIN *      LGT RAIN  66  66 100 SW15G25   29.80R VSB 3/4
WATERLOO       CLOUDY    67  64  90 SW12      29.78R
$$

IAZ064-065-067-068-078-282200-
   EAST CENTRAL IOWA

CITY           SKY/WX    TMP DP  RH WIND       PRES   REMARKS
DAVENPORT      CLOUDY    79  64  60 S22G31    29.80F HX  81
IOWA CITY      PTSUNNY   79  62  56 SW24G36   29.80R HX  80
MT. PLEASANT * SUNNY     81  64  57 SW17G30   29.82R HX  82
MUSCATINE *    PTSUNNY   79  68  69 S8G17     29.80F HX  81
QUAD CITIES    PTSUNNY   84  65  52 S21G30    29.79F HX  86
$$

IAZ062-063-075>077-085>089-095>099-282200-
   SOUTHEAST IOWA

CITY           SKY/WX    TMP DP  RH WIND       PRES   REMARKS
BURLINGTON     MOSUNNY   77  66  68 SW18G29   29.83R
FAIRFIELD *      N/A    N/A N/A N/A MISG        N/A
FORT MADISON * MOSUNNY   81  63  54 SW18G24   29.84S HX  82
KEOKUK *       MOSUNNY   81  63  54 SW17G32   29.83S HX  82
OSKALOOSA *      N/A     76  60  56 SW23      29.82R
OTTUMWA        PTSUNNY   74  61  63 SW18      29.81S
WASHINGTON *   MOSUNNY   77 -33   1 SW26G35   29.82R
$$

ABBREVIATIONS USED IN REMARKS
   TC - TEMPERATURES IN CELSIUS
  WCI - WIND CHILL INDEX
   HX - HEAT INDEX
  VSB - VISIBILITY
$$





USA.gov is the U.S. government's official web portal to all federal, state and local government web resources and services.